Seattle Boeing, WA
on Wednesday, November 14, 2012

Wednesday
Previous Day Next Day
Daily Summary
 ActualAverage (KSEA)Record (KSEA)
Temperature
Mean Temperature °F 46°F  
Max Temperature 52°F 51°F 65°F (1995)
Min Temperature 43°F 40°F 9°F (1955)
Degree Days
Heating Degree Days 17 19  
Month to date heating degree days 249  
Since 1 July heating degree days 846  
Cooling Degree Days 0 0  
Month to date cooling degree days 0  
Year to date cooling degree days 189  
Moisture
Dew Point 44°F   
Average Humidity 83    
Maximum Humidity 93    
Minimum Humidity 67    
Precipitation
Precipitation 0.00 in 0.23 in 2.61 in (2001)
Month to date precipitation 2.96  
Year to date precipitation 28.53  
Snow
Snow 0.00 in in T in (1963)
Month to date snowfall  
Since 1 July snowfall  
Snow Depth in   
Wind
Wind Speed 3 mph   
Max Wind Speed 6 mph   
Max Gust Speed mph   
Visibility 10 miles   
Events     

Key: T is trace of precipitation, MM is missing value
Source: NWS Daily Summary
Time(PST)TemperatureDew PointHumidity Pressure Visibility Wind DirectionWind SpeedGust SpeedPrecipitationEvents Conditions
12:09 AM 50.0°F 46.4°F 87% 30.18 in 10.0 miles ESE 5.8 mph - 0.00 in   Overcast
12:50 AM 50.0°F 46.4°F 87% 30.18 in 10.0 miles SSE 5.8 mph - 0.00 in   Overcast
12:53 AM 50.0°F 46.9°F 89% 30.18 in 10.0 miles SE 5.8 mph - 0.00 in   Overcast
1:53 AM 50.0°F 46.9°F 89% 30.19 in 10.0 miles Variable 3.5 mph - N/A   Overcast
2:53 AM 50.0°F 46.9°F 89% 30.20 in 10.0 miles SW 3.5 mph - N/A   Overcast
3:53 AM 48.9°F 46.0°F 90% 30.21 in 10.0 miles WSW 3.5 mph - N/A   Overcast
4:53 AM 48.9°F 46.0°F 90% 30.22 in 10.0 miles West 3.5 mph - N/A   Overcast
5:53 AM 48.0°F 45.0°F 89% 30.23 in 10.0 miles Variable 3.5 mph - N/A   Overcast
6:53 AM 48.0°F 44.1°F 86% 30.25 in 10.0 miles Calm Calm - N/A   Overcast
7:26 AM 46.4°F 44.6°F 93% 30.25 in 10.0 miles Calm Calm - N/A   Overcast
7:53 AM 46.9°F 45.0°F 93% 30.27 in 10.0 miles Calm Calm - N/A   Overcast
8:13 AM 48.2°F 44.6°F 87% 30.27 in 10.0 miles Calm Calm - N/A   Overcast
8:20 AM 48.2°F 44.6°F 87% 30.28 in 10.0 miles Calm Calm - N/A   Overcast
8:53 AM 48.0°F 45.0°F 89% 30.29 in 10.0 miles Calm Calm - N/A   Overcast
9:00 AM 48.2°F 44.6°F 87% 30.29 in 10.0 miles Calm Calm - N/A   Overcast
9:53 AM 48.9°F 46.0°F 90% 30.30 in 8.0 miles Calm Calm - N/A   Overcast
10:46 AM 50.0°F 44.6°F 82% 30.32 in 10.0 miles Calm Calm - N/A   Overcast
10:53 AM 50.0°F 45.0°F 83% 30.32 in 10.0 miles Calm Calm - N/A   Overcast
11:53 AM 51.1°F 44.1°F 77% 30.32 in 10.0 miles NNE 3.5 mph - N/A   Mostly Cloudy
12:00 PM 51.8°F 42.8°F 71% 30.32 in 10.0 miles NE 4.6 mph - N/A   Mostly Cloudy
12:08 PM 51.8°F 42.8°F 71% 30.31 in 10.0 miles Variable 3.5 mph - N/A   Mostly Cloudy
12:53 PM 52.0°F 42.1°F 69% 30.31 in 10.0 miles ENE 4.6 mph - N/A   Mostly Cloudy
1:53 PM 52.0°F 42.1°F 69% 30.31 in 10.0 miles North 3.5 mph - N/A   Mostly Cloudy
2:53 PM 52.0°F 42.1°F 69% 30.31 in 10.0 miles Calm Calm - N/A   Scattered Clouds
3:00 PM 51.8°F 41.0°F 67% 30.31 in 10.0 miles North 4.6 mph - N/A   Mostly Cloudy
3:53 PM 51.1°F 42.1°F 71% 30.32 in 10.0 miles NW 4.6 mph - N/A   Mostly Cloudy
4:31 PM 50.0°F 41.0°F 71% 30.32 in 10.0 miles NW 4.6 mph - N/A   Scattered Clouds
4:53 PM 50.0°F 42.1°F 74% 30.31 in 10.0 miles Variable 3.5 mph - N/A   Scattered Clouds
5:53 PM 48.0°F 41.0°F 77% 30.31 in 10.0 miles Calm Calm - N/A   Clear
6:53 PM 46.9°F 41.0°F 80% 30.32 in 10.0 miles Calm Calm - N/A   Clear
7:53 PM 46.0°F 42.1°F 86% 30.32 in 10.0 miles Calm Calm - N/A   Clear
8:53 PM 44.1°F 39.9°F 85% 30.31 in 10.0 miles Calm Calm - N/A   Clear
9:53 PM 44.1°F 41.0°F 89% 30.30 in 10.0 miles Calm Calm - N/A   Clear
10:53 PM 44.1°F 41.0°F 89% 30.29 in 10.0 miles Calm Calm - N/A   Clear
11:53 PM 43.0°F 41.0°F 93% 30.28 in 9.0 miles Calm Calm - N/A   Clear
Moon Phase
Nov. 14 Nov. 20 Nov. 28 Dec. 06 Dec. 13
Sunrise:07:13 AM (PST) Moon Rise:08:13 AM (PST)11/14
Sunset:04:33 PM (PST) Moon Set:05:22 PM (PST)11/14

Copyright © 2014 The Weather Underground, Inc.